Hourly Weather Cerano

Today, 19 June, Saturday

Time Temperature Precipitation Wind Pressure Humidity
00:00 +15°C° 0.7 mm 1 mps 596 mmHg 93%
01:00 +15°C° 0.7 mm 1 mps 595 mmHg 94%
02:00 +15°C° 0.7 mm 1 mps 595 mmHg 94%
03:00 +15°C° 0.2 mm 1 mps 595 mmHg 94%
04:00 +15°C° 0.2 mm 1 mps 595 mmHg 94%
05:00 +15°C° 0.2 mm 1 mps 595 mmHg 94%
06:00 +15°C° 0.6 mm 1 mps 595 mmHg 93%
07:00 +16°C° 0.6 mm 1 mps 595 mmHg 92%
08:00 +16°C° 0.6 mm 1 mps 596 mmHg 90%
09:00 +16°C° 0.7 mm 1 mps 596 mmHg 90%
10:00 +16°C° 0.7 mm 1 mps 596 mmHg 89%
11:00 +16°C° 0.7 mm 1 mps 596 mmHg 89%
12:00 +16°C° 1 mm 1 mps 596 mmHg 89%
13:00 +16°C° 1 mm 1 mps 596 mmHg 89%
14:00 +16°C° 1 mm 1 mps 596 mmHg 89%
15:00 +16°C° 0.3 mm 1 mps 596 mmHg 90%
16:00 +16°C° 0.3 mm 1 mps 596 mmHg 90%
17:00 +16°C° 0.3 mm 1 mps 596 mmHg 90%
18:00 +16°C° 0.1 mm 1 mps 596 mmHg 92%
19:00 +15°C° 0.1 mm 1 mps 596 mmHg 93%
20:00 +15°C° 0.1 mm 1 mps 597 mmHg 94%
21:00 +15°C° 0 mm 1 mps 597 mmHg 94%
22:00 +15°C° 0 mm 1 mps 597 mmHg 94%
23:00 +15°C° 0 mm 1 mps 597 mmHg 94%

Tomorrow, 20 June, Sunday

Time Temperature Precipitation Wind Pressure Humidity
00:00 +15°C° 0 mm 1 mps 597 mmHg 94%
01:00 +15°C° 0 mm 1 mps 597 mmHg 94%
02:00 +15°C° 0 mm 1 mps 596 mmHg 95%
03:00 +14°C° 0 mm 1 mps 596 mmHg 95%
04:00 +14°C° 0 mm 1 mps 597 mmHg 95%
05:00 +14°C° 0 mm 1 mps 597 mmHg 95%
06:00 +16°C° 0 mm 1 mps 598 mmHg 87%
07:00 +19°C° 0 mm 1 mps 598 mmHg 80%
08:00 +18°C° 0 mm 0 mps 599 mmHg 72%
09:00 +22°C° 0 mm 1 mps 600 mmHg 64%
10:00 +24°C° 0 mm 1 mps 600 mmHg 57%
11:00 +25°C° 0 mm 1 mps 600 mmHg 49%
12:00 +25°C° 0.3 mm 1 mps 600 mmHg 50%
13:00 +25°C° 0.3 mm 1 mps 599 mmHg 51%
14:00 +25°C° 0.3 mm 2 mps 598 mmHg 51%
15:00 +24°C° 0.4 mm 2 mps 598 mmHg 55%
16:00 +24°C° 0.4 mm 1 mps 598 mmHg 58%
17:00 +23°C° 0.4 mm 1 mps 598 mmHg 62%
18:00 +22°C° 0.6 mm 1 mps 598 mmHg 68%
19:00 +21°C° 0.6 mm 1 mps 598 mmHg 74%
20:00 +19°C° 0.6 mm 1 mps 598 mmHg 80%
21:00 +19°C° 0.3 mm 1 mps 598 mmHg 82%
22:00 +19°C° 0.3 mm 1 mps 598 mmHg 84%
23:00 +18°C° 0.3 mm 1 mps 598 mmHg 87%

Day after tomorrow, 21 June, Monday

Time Temperature Precipitation Wind Pressure Humidity
00:00 +18°C° 0.1 mm 1 mps 598 mmHg 88%
01:00 +16°C° 0.1 mm 1 mps 597 mmHg 89%
02:00 +16°C° 0.1 mm 1 mps 597 mmHg 90%
03:00 +16°C° 0 mm 1 mps 597 mmHg 90%
04:00 +15°C° 0 mm 1 mps 597 mmHg 91%
05:00 +14°C° 0 mm 0 mps 597 mmHg 91%
06:00 +16°C° 0 mm 0 mps 598 mmHg 83%
07:00 +18°C° 0 mm 0 mps 599 mmHg 75%
08:00 +20°C° 0 mm 0 mps 599 mmHg 67%
09:00 +22°C° 0 mm 0 mps 600 mmHg 59%
10:00 +25°C° 0 mm 0 mps 600 mmHg 50%
11:00 +27°C° 0 mm 0 mps 601 mmHg 42%
12:00 +27°C° 0.1 mm 0 mps 600 mmHg 42%
13:00 +26°C° 0.1 mm 0 mps 599 mmHg 42%
14:00 +28°C° 0.1 mm 1 mps 598 mmHg 42%
15:00 +27°C° 0.1 mm 1 mps 598 mmHg 46%
16:00 +26°C° 0.1 mm 1 mps 597 mmHg 51%
17:00 +25°C° 0.1 mm 2 mps 597 mmHg 55%
18:00 +23°C° 2.3 mm 2 mps 597 mmHg 66%
19:00 +20°C° 2.3 mm 2 mps 597 mmHg 78%
20:00 +18°C° 2.3 mm 2 mps 596 mmHg 89%
21:00 +17°C° 11.5 mm 2 mps 597 mmHg 90%
22:00 +16°C° 11.5 mm 2 mps 597 mmHg 90%
23:00 +15°C° 11.5 mm 2 mps 597 mmHg 91%

22 June, Tuesday

Time Temperature Precipitation Wind Pressure Humidity
00:00 +15°C° 0.9 mm 1 mps 597 mmHg 91%
01:00 +15°C° 0.9 mm 1 mps 597 mmHg 91%
02:00 +14°C° 0.9 mm 0 mps 596 mmHg 91%
03:00 +15°C° 0.7 mm 1 mps 597 mmHg 92%
04:00 +15°C° 0.7 mm 1 mps 597 mmHg 94%
05:00 +15°C° 0.7 mm 1 mps 597 mmHg 95%
06:00 +16°C° 0.4 mm 1 mps 597 mmHg 92%
07:00 +16°C° 0.4 mm 1 mps 597 mmHg 89%
08:00 +18°C° 0.4 mm 1 mps 597 mmHg 86%
09:00 +19°C° 0 mm 1 mps 598 mmHg 80%
10:00 +21°C° 0 mm 1 mps 598 mmHg 73%
11:00 +22°C° 0 mm 1 mps 598 mmHg 67%
12:00 +23°C° 0.3 mm 1 mps 598 mmHg 62%
13:00 +24°C° 0.3 mm 1 mps 598 mmHg 58%
14:00 +25°C° 0.3 mm 1 mps 598 mmHg 53%
15:00 +24°C° 0.8 mm 1 mps 598 mmHg 61%
16:00 +22°C° 0.8 mm 1 mps 597 mmHg 68%
17:00 +20°C° 0.8 mm 2 mps 597 mmHg 76%
18:00 +19°C° 0.7 mm 2 mps 597 mmHg 80%
19:00 +19°C° 0.7 mm 1 mps 597 mmHg 85%
20:00 +18°C° 0.7 mm 1 mps 597 mmHg 90%
21:00 +16°C° 0.1 mm 1 mps 597 mmHg 90%
22:00 +16°C° 0.1 mm 1 mps 597 mmHg 90%
23:00 +15°C° 0.1 mm 0 mps 597 mmHg 91%

23 June, Wednesday

Time Temperature Precipitation Wind Pressure Humidity
00:00 +15°C° 0 mm 0 mps 597 mmHg 90%
01:00 +15°C° 0 mm 0 mps 597 mmHg 90%
02:00 +15°C° 0 mm 0 mps 596 mmHg 90%
03:00 +14°C° 0 mm 0 mps 596 mmHg 91%
04:00 +14°C° 0 mm 0 mps 596 mmHg 91%
05:00 +14°C° 0 mm 0 mps 596 mmHg 92%
06:00 +16°C° 0.1 mm 1 mps 597 mmHg 84%
07:00 +19°C° 0.1 mm 1 mps 598 mmHg 77%
08:00 +21°C° 0.1 mm 1 mps 599 mmHg 70%
09:00 +23°C° 0.6 mm 1 mps 599 mmHg 63%
10:00 +25°C° 0.6 mm 1 mps 600 mmHg 56%
11:00 +27°C° 0.6 mm 1 mps 600 mmHg 48%
12:00 +26°C° 0.6 mm 1 mps 599 mmHg 51%
13:00 +25°C° 0.6 mm 2 mps 599 mmHg 54%
14:00 +24°C° 0.6 mm 2 mps 598 mmHg 57%
15:00 +21°C° 4 mm 2 mps 597 mmHg 67%
16:00 +20°C° 4 mm 1 mps 597 mmHg 77%
17:00 +18°C° 4 mm 1 mps 596 mmHg 88%
18:00 +16°C° 2.7 mm 1 mps 597 mmHg 90%
19:00 +16°C° 2.7 mm 1 mps 597 mmHg 93%
20:00 +16°C° 2.7 mm 1 mps 597 mmHg 95%
21:00 +16°C° 1.2 mm 1 mps 597 mmHg 95%
22:00 +16°C° 1.2 mm 1 mps 598 mmHg 95%
23:00 +15°C° 1.2 mm 0 mps 598 mmHg 94%

24 June, Thursday

Time Temperature Precipitation Wind Pressure Humidity
00:00 +14°C° 0 mm 0 mps 597 mmHg 95%
01:00 +14°C° 0 mm 0 mps 597 mmHg 96%
02:00 +14°C° 0 mm 0 mps 596 mmHg 97%
03:00 +13°C° 0 mm 0 mps 596 mmHg 97%
04:00 +13°C° 0 mm 0 mps 596 mmHg 97%
05:00 +13°C° 0 mm 0 mps 596 mmHg 97%
06:00 +16°C° 0 mm 1 mps 597 mmHg 91%
07:00 +18°C° 0 mm 1 mps 598 mmHg 85%
08:00 +19°C° 0 mm 1 mps 598 mmHg 79%
09:00 +21°C° 0.2 mm 1 mps 598 mmHg 72%
10:00 +21°C° 0.2 mm 2 mps 598 mmHg 66%
11:00 +23°C° 0.2 mm 2 mps 598 mmHg 59%
12:00 +24°C° 0.2 mm 3 mps 598 mmHg 53%
13:00 +25°C° 0.2 mm 3 mps 598 mmHg 48%
14:00 +26°C° 0.2 mm 3 mps 597 mmHg 43%
15:00 +26°C° 0 mm 3 mps 597 mmHg 45%
16:00 +25°C° 0 mm 3 mps 596 mmHg 48%
17:00 +24°C° 0 mm 2 mps 596 mmHg 50%
18:00 +21°C° 0.1 mm 2 mps 596 mmHg 58%
19:00 +20°C° 0.1 mm 1 mps 596 mmHg 66%
20:00 +18°C° 0.1 mm 1 mps 596 mmHg 74%
21:00 +18°C° 0 mm 1 mps 596 mmHg 77%
22:00 +16°C° 0 mm 1 mps 596 mmHg 79%
23:00 +15°C° 0 mm 1 mps 596 mmHg 81%
Show more

We Need Your Consent

Meteoprog and our Service Providers may store and access personal data such as cookies, device identifiers or other similar technologies on your device and process such data to personalise content and ads, as well as provide social media features and to analyse the traffic.

  • Store and/or access information on your device

    Cookies, device identifiers or other information can be stored or accessed on your device for the purposes indicated above.

  • Personalised ads and content, ad and content measurement, audience insights, and products development

    Ads and content can be personalised based on a profile. More data can be added to better personalise ads and content. Ad and content performance can be measured. Insights about the audience who saw the ads and content can be derived. Such data can be used to develop or improve user’s experience, systems and software.

By clicking ‘I Agree’ you will allow the use of indicated cookies, device identifiers, web beacons or other similar technologies. Your settings can be changed in the browser on your device.

For certain purposes, legitimate interests may be relied on, rather than consent. You can read more about this in our Privacy and Cookie Policy.